Location: Peach Mountain Observatory
(42.3967°N, 83.9367°W)
Time: 01:41:24
(UTC-05:00)

S-56A Canister/Altair - Pass Details

Date: 27 January 2020
Orbit: 633 x 2500 km, 38.9° (Epoch: 27 February)

Event Time Altitude Azimuth Distance (km) Brightness Sun altitude
Rises 20:24:51 0° 243° (WSW) 4,429 12.3 -29.9°
Reaches altitude 10° 20:28:23 10° 239° (WSW) 3,151 11.3 -30.6°
Enters shadow 20:34:14 44° 199° (SSW) 1,287 8.6 -31.6°
Maximum altitude 20:35:22 49° 167° (SSE) 1,149 - -31.8°
Drops below altitude 10° 20:40:19 10° 93° (E) 2,249 - -32.8°
Sets 20:42:28 0° 87° (E) 3,060 - -33.1°
